Погода в Пушном

Россия / Мурманская область     68°28′37″N   33°19′08″E
темп.,
°C
ветер,
м/с
пор.,
м/с
влажн.,
%
обл.,
%
осадки,
мм/ч
давл.,
гПа
погр.,
м
9 марта, вт
вт900:00−22ююз12994 0.0 102020
03:00−23ююз22982 0.0 102120
06:00−23ююз229463 0.0 102020
09:00−21зюз119467 0.0 102127
12:00−15з129398 0.1 1021209
15:00−13з139498 0.3 1022252
18:00−14зюз1197100 0.2 102333
21:00−14зюз1197100 0.4 102323
10 марта, ср
ср1000:00−16зюз119699 0.1 102320
03:00−19юз119860 0.1 102420
06:00−19юз12975 0.0 102420
09:00−18ююз23908 0.0 102331
12:00−12юз278419 0.0 1022333
15:00−10юз498417 0.0 1020520
18:00−14ююз38909 0.0 1018184
21:00−17ююз359418 0.0 101796
11 марта, чт
чт1100:00−18ююз369367 0.0 1015118
03:00−18ююз488861 0.0 1013165
06:00−17ююз41387100 0.0 1010441
09:00−16ююз41487100 0.0 1008546
12:00−13юз6148573 0.0 1006582
15:00−10юз7158270 0.0 1004701
18:00−11юз5167827 0.0 1002577
21:00−13ююз5158313 0.0 1001438
12 марта, пт
пт1200:00−15ююз413910 0.0 1000352
03:00−15ююз4139120 0.0 999343
06:00−15ююз4129387 0.0 997315
09:00−13ююз5159191 0.0 996479
12:00−11ююз61391100 0.0 995491
15:00−8ююз61388100 0.0 994615
18:00−9ююз5128967 0.0 993529
21:00−10ююз4129245 0.0 993350
13 марта, сб
сб1300:00−10ююз4129190 0.0 993390
03:00−12ю479449 0.0 992200
06:00−12ю479472 0.0 991225
09:00−10ююз489381 0.1 990333
12:00−8ю4993100 0.2 990371
15:00−6ю4890100 0.2 990401
18:00−7ююз3893100 0.0 990233
21:00−9ю3394100 0.0 98971